Temp
-7 -7 -7 -7 -7 -7 -7 -7 -7 -8 -8 -8 -8 -8 -8 -8 -8 -8 -8 -8 -8 -8 -8 -8 -8 -8 -8 -8 -8 -8 -8 -8 -8 -8 -8 -8 -8 -8 -8 -8 -8 -8
-7 -7 -7 -7 -7 -7 -7 -7 -8 -8 -8 -8 -8 -8 -8 -8 -8 -8 -8 -8 -8 -8 -8 -8 -8 -8 -8 -8 -8 -8 -8 -8 -8 -8 -8 -8 -8 -8 -8 -8 -8 -8
-7 -7 -7 -7 -7 -8 -8 -8 -8 -8 -8 -8 -8 -8 -8 -8 -8 -9 -9 -8 -8 -8 -8 -8 -8 -8 -8 -8 -9 -9 -8 -8 -8 -8 -8 -8 -8 -8 -8 -8 -8 -8
-7 -7 -7 -8 -7 -7 -7 -8 -8 -8 -8 -8 -8 -8 -8 -8 -9 -9 -9 -9 -8 -8 -8 -8 -8 -8 -8 -9 -9 -9 -9 -8 -8 -9 -9 -9 -9 -8 -8 -8 -8 -8
-8 -8 -8 -8 -7 -7 -7 -7 -8 -8 -8 -8 -8 -8 -8 -8 -8 -9 -9 -9 -9 -8 -8 -8 -8 -8 -8 -9 -9 -9 -9 -9 -9 -9 -9 -9 -9 -9 -8 -8 -8 -8
-8 -8 -7 -7 -7 -7 -7 -7 -7 -7 -7 -7 -8 -8 -8 -8 -8 -9 -9 -9 -9 -8 -8 -8 -9 -9 -9 -9 -9 -9 -9 -9 -9 -9 -9 -9 -9 -9 -9 -9 -9 -9
-7 -7 -7 -7 -7 -7 -7 -7 -7 -8 -8 -7 -8 -8 -8 -8 -8 -9 -9 -9 -9 -9 -8 -8 -9 -9 -9 -9 -9 -9 -9 -9 -9 -9 -9 -9 -9 -9 -9 -9 -9 -9
-7 -7 -7 -7 -8 -8 -8 -8 -8 -8 -8 -8 -8 -8 -8 -8 -9 -9 -9 -9 -9 -9 -9 -9 -9 -9 -9 -9 -9 -9 -9 -9 -9 -9 -9 -9 -9 -9 -9 -9 -9 -9
-7 -8 -8 -8 -8 -8 -8 -8 -8 -8 -8 -8 -9 -9 -9 -9 -9 -9 -9 -9 -9 -9 -9 -9 -9 -9 -9 -9 -9 -9 -9 -9 -9 -9 -9 -9 -9 -9 -9 -9 -9 -9
-8 -8 -8 -8 -8 -8 -8 -8 -8 -8 -8 -8 -9 -9 -9 -9 -9 -9 -9 -9 -9 -9 -9 -9 -10 -10 -10 -10 -9 -9 -9 -10 -10 -10 -10 -9 -9 -10 -9 -9 -9 -9
-8 -8 -9 -8 -8 -7 -7 -8 -8 -8 -8 -8 -8 -8 -8 -9 -9 -9 -9 -9 -9 -9 -10 -10 -10 -10 -10 -10 -10 -10 -10 -10 -10 -10 -10 -9 -10 -10 -10 -10 -10 -9
-8 -9 -9 -8 -8 -8 -8 -8 -8 -8 -8 -8 -8 -8 -8 -8 -8 -8 -9 -9 -9 -9 -10 -10 -10 -10 -10 -10 -10 -10 -10 -10 -10 -10 -10 -10 -10 -10 -10 -10 -10 -10
-9 -9 -8 -8 -8 -8 -8 -8 -8 -8 -8 -8 -8 -8 -8 -8 -8 -8 -9 -9 -9 -9 -10 -10 -10 -10 -10 -10 -10 -10 -10 -10 -10 -10 -10 -10 -10 -10 -10 -10 -10 -10
-9 -8 -8 -8 -8 -8 -8 -8 -8 -8 -8 -8 -8 -8 -8 -8 -8 -8 -9 -9 -9 -9 -10 -10 -10 -10 -10 -10 -10 -10 -10 -10 -10 -10 -10 -10 -10 -10 -10 -10 -10 -10
-8 -8 -8 -8 -8 -8 -8 -8 -8 -8 -7 -7 -8 -8 -8 -8 -8 -8 -8 -9 -9 -10 -10 -10 -10 -10 -10 -10 -10 -10 -10 -10 -10 -10 -10 -10 -11 -11 -11 -10 -11 -11
-8 -8 -8 -8 -8 -8 -8 -8 -8 -8 -8 -8 -8 -8 -8 -8 -8 -8 -8 -9 -9 -10 -10 -10 -10 -10 -10 -10 -10 -10 -10 -10 -10 -10 -11 -11 -11 -11 -11 -11 -11 -11
-8 -8 -8 -8 -8 -8 -8 -8 -8 -8 -8 -8 -8 -8 -8 -8 -8 -8 -8 -9 -9 -10 -10 -10 -10 -10 -10 -10 -11 -11 -10 -10 -11 -11 -11 -11 -11 -11 -11 -11 -11 -11
-8 -8 -8 -8 -8 -8 -8 -8 -9 -9 -9 -8 -8 -8 -8 -8 -8 -8 -8 -8 -9 -9 -10 -10 -10 -10 -10 -11 -11 -11 -10 -10 -11 -11 -11 -11 -11 -11 -11 -11 -11 -11
-8 -8 -8 -8 -8 -8 -8 -9 -9 -9 -9 -9 -9 -8 -8 -8 -9 -9 -8 -9 -9 -9 -10 -10 -10 -10 -10 -11 -10 -10 -10 -10 -11 -11 -11 -11 -12 -12 -12 -12 -12 -12
-8 -8 -8 -8 -8 -8 -8 -9 -9 -9 -9 -9 -9 -9 -9 -9 -9 -9 -9 -9 -9 -9 -10 -10 -10 -10 -10 -10 -10 -10 -10 -10 -10 -11 -11 -12 -12 -12 -12 -12 -12 -12
-8 -8 -8 -8 -9 -9 -9 -9 -9 -9 -9 -9 -9 -9 -9 -9 -9 -9 -9 -9 -9 -9 -9 -10 -10 -10 -10 -10 -10 -10 -10 -10 -10 -11 -11 -12 -12 -12 -12 -12 -12 -12
-8 -8 -8 -9 -9 -9 -9 -9 -9 -9 -9 -9 -9 -9 -9 -9 -9 -9 -9 -9 -9 -9 -9 -10 -10 -10 -10 -10 -10 -10 -10 -10 -11 -11 -11 -12 -12 -12 -12 -12 -12 -12
-9 -9 -9 -9 -9 -9 -9 -9 -9 -9 -9 -9 -9 -9 -9 -9 -9 -9 -9 -9 -9 -9 -10 -10 -10 -10 -10 -10 -10 -11 -11 -11 -11 -11 -11 -11 -12 -12 -12 -12 -12 -12
-9 -9 -9 -9 -9 -9 -9 -10 -10 -10 -10 -10 -10 -10 -9 -9 -9 -9 -9 -9 -9 -10 -10 -10 -10 -10 -10 -10 -11 -11 -11 -11 -11 -11 -11 -11 -11 -11 -12 -12 -11 -11
-9 -9 -9 -9 -9 -10 -10 -10 -10 -10 -10 -10 -10 -10 -9 -9 -9 -9 -9 -9 -9 -10 -10 -10 -10 -10 -10 -10 -11 -11 -12 -12 -12 -11 -11 -11 -11 -11 -12 -11 -11 -11
-9 -10 -10 -10 -10 -10 -10 -10 -10 -10 -10 -10 -10 -10 -10 -10 -9 -9 -9 -9 -9 -9 -10 -10 -10 -10 -10 -10 -11 -11 -12 -12 -12 -12 -12 -12 -12 -12 -12 -12 -12 -12
Height
5915 5914 5914 5914 5913 5913 5912 5912 5911 5911 5910 5909 5909 5908 5908 5907 5906 5905 5904 5904 5903 5903 5902 5901 5900 5899 5899 5898 5897 5895 5894 5893 5892 5891 5890 5889 5888 5887 5886 5884 5883 5881
5912 5912 5911 5911 5911 5910 5910 5910 5909 5908 5908 5907 5906 5905 5905 5904 5903 5902 5901 5901 5901 5900 5899 5898 5897 5896 5895 5895 5894 5893 5892 5890 5889 5888 5888 5887 5885 5884 5883 5881 5880 5878
5910 5909 5909 5909 5908 5908 5908 5907 5907 5906 5905 5904 5903 5903 5902 5901 5900 5899 5899 5898 5897 5897 5896 5895 5894 5893 5892 5892 5891 5891 5890 5888 5887 5886 5885 5884 5883 5881 5880 5879 5877 5876
5907 5906 5906 5906 5906 5906 5905 5905 5904 5903 5902 5901 5901 5900 5899 5898 5898 5897 5896 5895 5894 5893 5893 5892 5891 5890 5890 5889 5888 5888 5887 5886 5884 5883 5882 5881 5880 5879 5877 5876 5874 5873
5904 5904 5904 5904 5904 5903 5902 5902 5901 5901 5900 5899 5898 5898 5897 5896 5895 5894 5893 5892 5891 5890 5889 5889 5888 5887 5886 5886 5885 5884 5883 5882 5881 5880 5879 5878 5877 5876 5874 5873 5872 5870
5901 5901 5902 5902 5902 5901 5901 5900 5900 5899 5898 5897 5896 5896 5895 5894 5893 5892 5891 5890 5889 5888 5886 5886 5885 5884 5883 5882 5882 5881 5880 5879 5878 5876 5875 5874 5874 5873 5872 5870 5869 5867
5899 5900 5901 5901 5900 5900 5899 5899 5898 5897 5897 5895 5894 5893 5892 5891 5890 5889 5888 5886 5886 5885 5883 5882 5882 5880 5879 5878 5878 5877 5876 5875 5874 5872 5871 5870 5870 5869 5868 5867 5865 5864
5899 5900 5900 5899 5898 5897 5896 5896 5895 5894 5893 5892 5891 5890 5889 5888 5887 5885 5884 5882 5881 5881 5880 5879 5878 5877 5876 5875 5874 5873 5873 5871 5870 5869 5867 5866 5866 5865 5865 5863 5862 5860
5899 5897 5896 5895 5895 5894 5893 5892 5891 5890 5889 5888 5887 5886 5885 5884 5882 5881 5880 5879 5877 5876 5876 5875 5874 5873 5872 5871 5870 5869 5868 5868 5866 5865 5864 5863 5862 5862 5861 5860 5858 5857
5896 5894 5892 5891 5892 5891 5890 5889 5887 5886 5885 5884 5883 5881 5880 5879 5878 5876 5875 5874 5873 5872 5872 5871 5870 5869 5868 5867 5867 5865 5864 5863 5862 5861 5861 5860 5859 5858 5857 5856 5855 5853
5891 5890 5889 5889 5890 5890 5888 5885 5883 5883 5882 5880 5879 5878 5876 5874 5873 5872 5871 5869 5868 5867 5866 5866 5865 5864 5863 5863 5862 5861 5860 5859 5858 5858 5857 5856 5855 5854 5853 5851 5850 5849
5887 5887 5887 5888 5888 5888 5886 5883 5881 5880 5879 5877 5875 5873 5872 5870 5868 5867 5865 5864 5863 5862 5861 5861 5860 5859 5859 5858 5857 5857 5856 5855 5854 5854 5853 5852 5851 5850 5848 5847 5846 5845
5883 5883 5885 5887 5887 5885 5884 5881 5879 5877 5875 5873 5871 5870 5868 5867 5865 5863 5861 5860 5859 5858 5856 5855 5855 5854 5854 5853 5853 5852 5852 5851 5850 5850 5849 5848 5846 5845 5844 5842 5841 5840
5880 5880 5882 5884 5884 5883 5882 5879 5877 5875 5872 5870 5868 5867 5865 5864 5862 5861 5858 5856 5855 5853 5852 5850 5850 5850 5849 5848 5848 5848 5847 5847 5846 5845 5844 5843 5842 5841 5839 5838 5837 5836
5879 5878 5878 5878 5879 5880 5879 5877 5874 5872 5869 5867 5865 5864 5862 5860 5859 5857 5855 5853 5851 5849 5847 5846 5846 5845 5844 5844 5844 5843 5843 5842 5842 5841 5840 5839 5837 5836 5835 5833 5832 5831
5877 5876 5875 5873 5874 5875 5875 5873 5871 5869 5866 5864 5862 5860 5859 5856 5854 5853 5851 5848 5846 5845 5843 5842 5842 5840 5839 5839 5839 5839 5838 5838 5837 5837 5836 5835 5833 5832 5830 5829 5828 5827
5873 5873 5871 5870 5870 5870 5870 5868 5867 5865 5863 5862 5859 5857 5855 5852 5850 5849 5847 5844 5842 5841 5839 5838 5838 5836 5835 5835 5835 5834 5833 5833 5833 5832 5832 5830 5829 5827 5826 5824 5823 5822
5870 5869 5868 5866 5866 5865 5865 5863 5862 5860 5859 5857 5855 5853 5851 5848 5846 5844 5843 5841 5838 5836 5835 5834 5833 5832 5831 5830 5830 5829 5829 5828 5828 5828 5827 5826 5824 5823 5821 5820 5818 5817
5866 5865 5863 5862 5862 5861 5860 5858 5857 5855 5853 5851 5850 5848 5845 5843 5841 5839 5838 5836 5834 5832 5831 5830 5829 5828 5826 5825 5825 5825 5824 5824 5823 5823 5822 5821 5820 5818 5816 5815 5813 5812
5863 5861 5860 5858 5858 5856 5855 5854 5852 5850 5848 5846 5844 5842 5839 5838 5836 5834 5832 5831 5829 5828 5826 5826 5825 5824 5822 5821 5821 5821 5820 5819 5819 5819 5818 5816 5814 5813 5812 5810 5808 5807
5859 5857 5856 5854 5853 5852 5850 5849 5847 5845 5843 5840 5838 5836 5833 5831 5830 5828 5827 5826 5824 5823 5822 5822 5821 5820 5819 5818 5818 5817 5816 5816 5815 5814 5813 5811 5809 5807 5806 5805 5803 5802
5854 5853 5851 5849 5848 5847 5845 5843 5841 5839 5837 5835 5832 5830 5828 5826 5824 5824 5823 5821 5820 5819 5818 5818 5817 5816 5815 5814 5813 5813 5812 5812 5811 5809 5808 5806 5804 5802 5801 5799 5798 5796
5849 5847 5845 5844 5843 5841 5839 5837 5835 5833 5832 5830 5827 5825 5823 5821 5820 5819 5818 5817 5816 5815 5814 5813 5812 5811 5810 5809 5809 5808 5808 5807 5806 5804 5803 5800 5798 5796 5795 5794 5793 5791
5844 5842 5840 5838 5837 5835 5833 5831 5830 5828 5826 5825 5823 5820 5819 5817 5816 5814 5814 5812 5810 5810 5809 5808 5807 5806 5806 5805 5804 5803 5803 5802 5800 5799 5797 5795 5793 5791 5790 5789 5788 5787
5838 5836 5834 5832 5831 5829 5827 5826 5825 5823 5821 5820 5818 5816 5814 5813 5812 5811 5809 5807 5805 5805 5804 5803 5802 5801 5800 5800 5799 5798 5798 5796 5794 5793 5791 5790 5788 5786 5785 5784 5783 5781
5832 5830 5828 5826 5824 5822 5821 5819 5818 5817 5815 5814 5813 5811 5810 5809 5807 5805 5804 5802 5801 5799 5798 5798 5797 5796 5795 5795 5794 5793 5792 5790 5789 5787 5786 5784 5783 5781 5780 5779 5777 5775
Wind_Speed
18 18 18 17 17 18 18 18 18 19 19 19 19 20 21 22 23 23 23 21 20 19 18 19 20 21 20 19 18 19 18 18 18 18 18 19 20 21 21 21 20 20
17 18 18 18 18 17 18 18 19 20 20 20 20 20 21 22 23 24 24 22 21 19 19 19 20 21 20 19 19 19 20 19 18 18 19 19 20 21 21 21 20 21
18 19 19 19 17 17 18 19 20 21 22 22 21 21 22 23 23 23 23 23 22 21 19 19 20 21 20 20 19 20 21 20 19 18 18 19 21 22 22 21 20 22
18 19 19 18 17 18 19 20 21 22 23 24 24 23 23 23 23 23 23 23 23 22 21 20 20 21 21 20 20 21 21 21 20 18 18 19 21 23 23 22 21 22
18 18 18 18 18 19 21 21 22 23 24 25 25 25 25 24 24 24 23 23 23 24 23 22 21 21 21 20 20 21 21 21 20 19 19 20 21 23 23 22 22 23
17 18 18 18 18 20 22 22 23 24 25 27 27 27 27 26 25 25 24 24 24 25 26 24 22 22 22 21 21 22 22 22 21 21 20 21 22 23 23 23 23 23
18 18 18 18 19 21 23 25 26 27 28 30 30 30 29 29 27 27 27 27 26 26 27 27 25 24 23 23 22 23 23 23 22 22 21 22 23 23 24 24 25 26
17 18 19 21 21 22 25 28 29 30 31 33 34 34 33 32 31 30 29 29 30 30 29 29 28 27 26 25 25 25 26 25 24 23 23 23 24 25 25 25 27 28
16 18 20 20 20 22 26 28 29 30 32 34 36 37 37 35 35 34 32 32 34 34 33 32 31 30 28 27 27 28 28 27 26 25 24 24 25 26 26 27 28 29
15 15 18 19 20 22 25 28 30 31 32 31 32 34 37 38 37 36 36 37 39 38 36 34 33 32 30 29 28 29 29 28 28 28 26 26 27 27 27 28 29 30
14 13 15 19 21 24 27 31 34 35 34 32 30 31 33 35 35 36 38 40 40 39 37 35 34 33 31 30 29 29 29 30 30 30 29 28 28 27 27 28 30 31
14 14 15 18 22 24 26 29 32 32 32 32 31 32 32 31 30 32 34 36 37 37 37 37 36 34 32 30 30 30 31 31 32 31 30 31 30 29 29 29 30 32
15 17 17 18 20 22 24 27 29 30 30 30 30 29 29 29 29 30 30 31 33 35 36 38 37 34 32 32 32 32 32 32 32 32 32 32 32 31 31 31 32 33
17 20 21 21 21 22 24 27 30 31 31 31 29 26 26 28 29 30 30 29 30 32 34 35 35 34 33 32 32 33 33 33 33 33 33 34 34 33 32 33 34 34
20 23 25 27 27 27 27 28 30 31 31 31 30 28 28 30 31 30 29 28 29 30 32 32 33 33 32 31 31 32 33 34 33 33 33 35 35 34 34 34 34 35
24 26 28 30 31 30 30 29 30 31 31 31 31 31 32 33 34 32 30 28 29 30 31 30 31 32 31 30 31 32 33 34 33 33 34 35 36 36 35 35 35 35
26 28 30 32 32 33 33 33 32 32 31 30 30 32 33 35 36 33 29 28 29 31 31 30 31 32 31 30 33 35 35 34 33 34 35 35 35 36 36 35 35 36
29 30 32 33 35 36 36 36 35 33 32 30 30 31 33 35 35 33 29 29 30 30 30 30 30 32 32 32 33 34 33 32 33 34 34 34 35 36 36 36 36 37
31 33 34 36 37 39 39 38 37 37 35 34 32 32 33 33 32 31 30 30 31 31 30 29 28 29 29 29 29 29 30 31 32 33 34 34 35 35 36 36 37 39
33 35 36 37 38 41 41 40 40 39 38 37 35 34 32 30 30 30 30 29 31 32 30 28 25 25 26 28 27 27 28 28 30 32 34 34 35 36 36 36 38 39
35 37 38 39 41 43 44 43 42 40 40 39 37 34 31 29 30 32 32 30 31 33 31 28 25 25 27 27 26 25 26 27 29 32 34 35 36 37 37 37 39 40
38 40 41 42 43 45 46 46 44 42 41 40 36 33 32 31 31 32 32 31 33 34 33 29 27 28 29 27 25 25 27 28 30 32 34 37 38 39 38 38 40 41
41 43 44 44 46 47 48 48 45 43 43 40 35 33 32 32 32 31 31 33 36 35 33 32 31 31 31 29 28 27 28 29 31 33 35 38 39 39 38 39 40 42
43 45 46 46 47 49 49 48 45 44 44 39 33 32 32 31 32 31 31 35 37 35 35 36 35 35 34 32 31 30 30 30 32 34 36 38 38 38 38 38 40 42
45 46 47 48 49 50 50 48 44 45 44 38 32 32 31 29 30 31 31 34 36 36 37 37 36 37 37 35 35 34 33 33 33 34 36 38 38 37 36 37 40 44
47 48 48 48 49 51 51 49 47 47 44 37 32 32 31 29 31 31 31 32 35 37 38 36 36 37 37 37 38 38 36 36 37 36 36 38 38 36 35 38 43 46
Wind_Direction
273 278 282 286 290 291 294 296 297 296 296 295 295 295 297 298 300 302 304 306 306 305 304 303 301 299 297 295 294 294 293 294 297 300 302 304 304 304 303 303 305 309
272 276 280 285 289 291 294 295 294 293 292 291 291 292 293 295 297 299 302 305 304 303 302 301 299 298 297 295 293 294 294 294 296 300 303 304 303 301 301 301 303 307
272 274 278 283 287 289 291 292 292 290 288 287 287 288 290 292 294 296 299 302 302 300 300 300 298 297 296 294 292 293 294 293 294 299 302 301 300 300 301 301 302 306
268 271 276 281 285 286 287 289 290 289 287 287 287 288 289 291 292 293 295 297 297 298 299 299 298 297 295 292 289 290 292 291 292 297 300 299 299 301 301 299 301 308
265 268 273 277 280 283 285 287 289 289 289 290 290 291 292 292 292 292 292 293 294 296 297 298 297 296 294 290 287 288 290 290 292 296 298 299 300 302 301 298 300 307
261 265 269 275 281 285 289 292 293 292 294 295 294 294 293 294 295 293 291 289 291 293 294 295 296 295 294 291 287 287 290 290 291 293 296 297 298 300 301 298 296 300
263 269 277 284 287 291 296 299 298 297 298 298 296 294 293 293 296 296 292 288 287 287 288 290 293 293 292 291 289 289 291 290 289 291 295 297 298 299 300 298 295 293
278 289 294 289 285 290 299 303 301 298 298 297 296 296 294 293 293 293 291 288 286 284 285 288 290 290 288 288 289 290 290 289 288 290 292 295 297 297 299 299 296 293
293 302 302 297 291 294 302 305 304 301 300 297 296 295 293 292 290 288 287 288 288 285 285 288 289 288 286 285 286 289 288 285 284 286 289 292 294 295 296 297 296 294
297 302 305 307 306 305 308 308 305 302 299 298 299 297 294 293 290 286 287 290 290 286 285 287 289 287 285 284 285 287 285 281 281 285 288 290 291 293 293 294 295 294
295 297 299 304 307 309 311 309 305 303 300 299 302 304 304 302 296 290 289 290 290 286 282 286 289 287 285 284 284 284 282 281 282 285 288 290 290 290 291 292 293 294
295 290 291 302 308 311 314 313 313 315 312 308 305 304 306 308 305 301 295 292 291 288 285 287 287 285 284 284 283 282 281 281 283 286 289 291 291 291 291 292 293 295
289 287 295 312 319 319 322 322 322 324 322 317 312 306 305 308 309 309 304 297 295 293 291 290 286 283 283 283 281 281 281 282 285 286 290 293 293 292 293 295 297 299
285 293 304 316 319 320 323 323 323 323 320 317 313 307 307 309 309 309 307 302 298 296 294 293 289 284 282 280 279 279 281 284 286 287 291 295 294 293 294 295 297 298
293 303 310 312 314 317 319 319 320 320 319 317 313 308 307 309 309 310 309 304 299 296 294 294 292 287 282 278 277 279 283 285 285 287 291 294 293 292 292 293 295 297
300 305 307 308 312 316 317 317 318 318 318 316 314 310 307 306 307 308 307 303 299 295 293 293 291 285 279 276 275 278 285 287 285 287 291 292 291 290 290 290 293 295
301 302 302 303 308 313 316 318 319 319 318 314 310 306 302 300 301 301 300 299 298 296 294 293 290 283 278 276 275 278 284 287 286 288 292 292 290 289 288 289 290 291
302 302 301 302 307 312 315 317 318 318 317 312 307 302 297 295 297 296 293 296 298 296 294 291 286 281 279 279 278 279 283 287 289 292 294 292 289 287 286 287 288 288
305 303 301 302 307 311 314 315 315 315 314 310 306 302 295 292 294 292 289 293 297 296 291 284 278 276 278 279 280 282 286 291 294 296 296 293 291 287 285 285 285 287
306 303 301 301 306 310 312 312 312 312 312 310 307 301 294 288 288 289 288 290 294 293 287 277 271 272 276 278 281 286 289 293 296 298 298 295 292 289 286 284 284 286
308 305 301 301 304 308 310 309 309 309 310 309 305 300 294 287 286 289 290 289 291 290 283 271 265 269 274 275 280 285 287 290 294 297 297 295 293 290 287 285 284 284
307 305 302 301 303 306 307 307 307 307 308 307 303 298 294 289 287 290 290 289 290 288 280 270 262 263 268 270 274 279 285 289 293 294 294 293 293 291 287 284 283 282
304 303 302 301 302 304 305 305 305 306 306 304 298 294 291 289 288 288 288 290 290 284 276 269 262 259 263 266 269 276 284 289 291 293 293 293 292 289 285 283 283 285
301 301 299 299 300 302 303 303 302 303 304 301 294 290 290 290 291 291 290 292 289 279 269 267 263 258 259 262 266 273 283 288 290 293 294 293 291 287 284 284 287 289
298 298 298 299 299 300 302 302 299 300 300 297 290 288 289 291 293 293 293 291 283 270 263 263 262 259 259 261 264 269 277 285 290 293 294 293 289 285 285 288 292 294
296 296 297 298 298 298 300 300 299 299 297 293 288 288 289 291 291 291 290 287 277 267 262 262 261 260 262 266 266 266 272 282 288 291 293 292 288 285 288 294 297 298